DW5759 Weather Reports


Display with metric or nautical units.
time (UTC)temp
F
wind
direction
speed
MPH
gust
MPH
rain 1hr
in
rain 24hr
in
rain mn
in
humidity
%
barometer
mb
20260510171509 71 1 0.0 7.0 0.00 0.13 0.00 58 1011.1
20260510170010 71 218 0.0 6.0 0.00 0.14 0.00 59 1011.2
20260510164514 68 244 0.0 3.0 0.00 0.15 0.00 65 1011.3
20260510163010 69 274 1.0 7.0 0.00 0.16 0.00 64 1011.3
20260510161514 71 271 0.0 8.0 0.00 0.18 0.00 64 1011.2
20260510160014 70 132 1.0 8.0 0.00 0.19 0.00 65 1011.4
20260510154517 69 320 1.0 6.0 0.00 0.20 0.00 64 1011.5
20260510153008 68 116 0.0 9.0 0.00 0.20 0.00 70 1011.5
20260510151507 67 187 0.0 0.0 0.00 0.21 0.00 70 1011.5
20260510150014 66 222 0.0 0.0 0.00 0.22 0.00 77 1011.5
20260510144521 65 94 0.0 0.0 0.00 0.22 0.00 79 1011.4
20260510143027 63 80 0.0 2.0 0.00 0.23 0.00 82 1011.5
20260510141503 62 307 0.0 0.0 0.00 0.24 0.00 83 1011.3
20260510140010 60 247 0.0 0.0 0.00 0.25 0.00 86 1011.4
20260510134516 59 128 0.0 4.0 0.00 0.26 0.00 89 1011.4
20260510133020 57 76 0.0 0.0 0.00 0.26 0.00 93 1011.4
20260510131521 55 102 0.0 0.0 0.00 0.27 0.00 96 1011.7
20260510130008 53 278 0.0 0.0 0.00 0.27 0.00 96 1011.8
20260510124510 52 278 0.0 0.0 0.00 0.27 0.00 95 1011.8
20260510123014 52 266 0.0 0.0 0.00 0.27 0.00 95 1011.8
20260510121523 52 190 0.0 0.0 0.00 0.27 0.00 96 1011.5
20260510120018 51 182 0.0 0.0 0.00 0.28 0.00 95 1011.4
20260510114509 51 224 0.0 0.0 0.00 0.28 0.00 95 1011.4
20260510113014 50 224 0.0 0.0 0.00 0.29 0.00 95 1011.4
20260510111516 50 224 0.0 0.0 0.00 0.30 0.00 95 1011.2
20260510110005 50 226 0.0 0.0 0.00 0.30 0.00 95 1011.3
20260510104506 50 221 0.0 0.0 0.00 0.30 0.00 95 1011.1
20260510103010 50 221 0.0 0.0 0.00 0.31 0.00 95 1010.9
20260510101504 50 221 0.0 0.0 0.00 0.31 0.00 95 1010.8
20260510100004 50 219 0.0 0.0 0.00 0.32 0.00 95 1010.7
20260510094503 50 346 0.0 0.0 0.00 0.32 0.00 95 1010.6
20260510093009 50 346 0.0 0.0 0.00 0.33 0.00 95 1010.3
20260510091512 50 346 0.0 0.0 0.00 0.34 0.00 95 1010.3
20260510090003 50 346 0.0 0.0 0.00 0.34 0.00 95 1010.2
20260510084505 50 346 0.0 0.0 0.00 0.36 0.00 95 1009.9
20260510083004 50 218 0.0 0.0 0.00 0.37 0.00 95 1009.8
20260510081511 50 1 0.0 0.0 0.00 0.37 0.00 95 1010.2
20260510080010 49 1 0.0 0.0 0.00 0.38 0.00 95 1010.1
20260510074504 49 1 0.0 0.0 0.00 0.40 0.00 94 1010.3
20260510073005 50 1 0.0 0.0 0.00 0.42 0.00 95 1010.6
20260510071508 50 1 0.0 0.0 0.00 0.45 0.00 95 1010.6
20260510070022 50 1 0.0 0.0 0.00 0.45 0.00 95 1010.7
20260510064523 49 1 0.0 0.0 0.00 0.45 0.00 95 1010.8
20260510063019 49 1 0.0 0.0 0.00 0.45 0.00 94 1010.6
20260510061503 49 353 0.0 0.0 0.00 0.45 0.00 95 1010.2
20260510060008 49 316 0.0 0.0 0.00 0.45 0.00 94 1010.4
20260510054518 49 5 0.0 0.0 0.00 0.45 0.00 94 1010.2
20260510053026 49 360 0.0 0.0 0.00 0.45 0.00 94 1010.3
20260510051526 49 360 0.0 0.0 0.00 0.45 0.00 94 1010.4
20260510050014 49 360 0.0 0.0 0.00 0.45 0.00 94 1010.3
20260510044514 50 360 0.0 0.0 0.00 0.45 0.00 94 1010.2
20260510043017 50 360 0.0 0.0 0.00 0.45 0.00 94 1010.3
20260510041522 50 360 0.0 0.0 0.00 0.45 0.00 94 1010.1
20260510040029 50 360 0.0 0.0 0.00 0.45 0.00 94 1010.1
20260510034522 51 360 0.0 0.0 0.00 0.45 0.45 94 1010.1
20260510033018 51 360 0.0 0.0 0.00 0.45 0.45 94 1010.3
20260510031519 51 360 0.0 0.0 0.00 0.45 0.45 94 1010.4
20260510030020 51 359 0.0 0.0 0.00 0.45 0.45 94 1010.4
20260510024526 51 352 0.0 0.0 0.00 0.45 0.45 94 1010.3
20260510023007 51 352 0.0 0.0 0.00 0.45 0.45 94 1010.1
20260510021512 52 352 0.0 0.0 0.00 0.45 0.45 94 1010.0
20260510020018 52 347 0.0 0.0 0.00 0.45 0.45 94 1009.7
20260510014523 52 347 0.0 0.0 0.00 0.45 0.45 94 1010.0
20260510013004 52 347 0.0 0.0 0.00 0.45 0.45 94 1009.8
20260510011512 52 347 0.0 0.0 0.00 0.45 0.45 94 1009.6
20260510010015 52 347 0.0 0.0 0.00 0.45 0.45 93 1009.7
20260510004529 53 1 0.0 0.0 0.00 0.45 0.45 94 1009.5
20260510003003 53 284 0.0 0.0 0.00 0.45 0.45 93 1009.6
20260510001507 53 187 0.0 0.0 0.00 0.45 0.45 93 1009.3
20260510000028 53 195 0.0 0.0 0.00 0.45 0.45 93 1009.0
20260509234528 53 191 0.0 0.0 0.00 0.45 0.45 93 1008.9
20260509233016 53 29 0.0 1.0 0.00 0.45 0.45 93 1008.2
20260509231504 54 99 0.0 5.0 0.00 0.45 0.45 93 1008.2
20260509230004 54 307 0.0 2.0 0.00 0.45 0.45 93 1008.4
20260509224529 54 58 0.0 3.0 0.00 0.45 0.45 93 1008.6
20260509223016 54 70 0.0 0.0 0.00 0.45 0.45 94 1008.5
20260509221530 54 71 0.0 0.0 0.00 0.45 0.45 93 1008.6
20260509220021 54 75 0.0 0.0 0.00 0.45 0.45 93 1008.8
20260509214527 54 209 0.0 3.0 0.00 0.45 0.45 93 1008.6
20260509213013 54 151 0.0 0.0 0.01 0.45 0.45 94 1008.7
20260509211518 54 359 0.0 0.0 0.01 0.45 0.45 93 1008.6
20260509210022 54 150 0.0 0.0 0.01 0.45 0.45 93 1008.7
20260509204507 53 24 0.0 3.0 0.01 0.45 0.45 94 1009.2
20260509203010 53 166 0.0 0.0 0.00 0.44 0.44 94 1009.2
20260509201516 53 354 0.0 0.0 0.01 0.44 0.44 94 1009.6
20260509200018 53 117 0.0 2.0 0.02 0.44 0.44 94 1009.8
20260509194527 53 77 0.0 0.0 0.03 0.44 0.44 94 1010.0
20260509193009 53 139 0.0 0.0 0.05 0.44 0.44 94 1010.3
20260509191510 52 140 0.0 0.0 0.05 0.43 0.43 94 1010.6
20260509190040 52 193 0.0 0.0 0.06 0.42 0.42 93 1010.8
20260509184531 51 195 0.0 0.0 0.07 0.41 0.41 93 1010.8
20260509183029 51 217 0.0 0.0 0.06 0.39 0.39 93 1010.9
20260509181510 51 219 0.0 1.0 0.06 0.38 0.38 93 1010.7
20260509180027 51 275 0.0 0.0 0.05 0.36 0.36 93 1010.7
20260509174524 51 275 0.0 0.0 0.04 0.34 0.34 92 1010.7
20260509173021 51 275 0.0 0.0 0.04 0.33 0.33 93 1010.7
20260509171534 50 275 0.0 0.0 0.05 0.32 0.32 92 1010.6